MSR639 HECA-OEMA

Flight info

Callsign MSR639
Flight time 1h 29m
Altitude 35000
Route HECA/05C CVO L315 HGD M872 BOVET
Aircraft B738/M-SDE2E3FGHIRWXY/LB1

Departure

Time 2026-05-08 16:10
Airport Cairo International Airport (HECA)

Arrival

Time 2026-05-08 17:39
Airport Prince Mohammad Bin Abdulaziz Airport (OEMA)
Time Latitude Longitude Altitude Speed Heading
2026-05-08 15:23 30.10790 31.39878 377 ft 0 kts 75°
2026-05-08 15:56 30.10790 31.39875 377 ft 2 kts 75°
2026-05-08 15:56 30.10786 31.39857 377 ft 2 kts 76°
2026-05-08 15:57 30.10782 31.39839 377 ft 2 kts 76°
2026-05-08 15:57 30.10781 31.39820 377 ft 2 kts 102°
2026-05-08 15:57 30.10786 31.39802 377 ft 2 kts 115°
2026-05-08 15:57 30.10794 31.39786 377 ft 2 kts 129°
2026-05-08 15:58 30.10804 31.39774 377 ft 1 kts 149°
2026-05-08 15:58 30.10807 31.39772 377 ft 0 kts 156°
2026-05-08 16:04 30.10799 31.39775 377 ft 3 kts 166°
2026-05-08 16:04 30.10769 31.39784 377 ft 6 kts 164°
2026-05-08 16:05 30.10721 31.39800 377 ft 8 kts 164°
2026-05-08 16:05 30.10657 31.39822 377 ft 11 kts 164°
2026-05-08 16:05 30.10580 31.39842 377 ft 11 kts 168°
2026-05-08 16:05 30.10501 31.39866 377 ft 13 kts 164°
2026-05-08 16:06 30.10409 31.39854 377 ft 15 kts 226°
2026-05-08 16:06 30.10335 31.39760 377 ft 17 kts 228°
2026-05-08 16:06 30.10254 31.39655 377 ft 19 kts 229°
2026-05-08 16:06 30.10163 31.39578 377 ft 14 kts 175°
2026-05-08 16:07 30.10079 31.39639 377 ft 16 kts 140°
2026-05-08 16:07 30.10054 31.39666 377 ft 0 kts 134°
2026-05-08 16:08 30.10053 31.39666 377 ft 1 kts 134°
2026-05-08 16:08 30.10043 31.39679 377 ft 4 kts 134°
2026-05-08 16:08 30.10009 31.39743 377 ft 15 kts 102°
2026-05-08 16:09 30.09991 31.39844 377 ft 10 kts 91°
2026-05-08 16:09 30.10003 31.39877 377 ft 7 kts 52°
2026-05-08 16:09 30.10083 31.39983 377 ft 29 kts 48°
2026-05-08 16:09 30.10383 31.40382 377 ft 100 kts 49°
2026-05-08 16:10 30.10974 31.41161 379 ft 155 kts 50°
2026-05-08 16:10 30.11728 31.42133 882 ft 167 kts 45°
2026-05-08 16:10 30.12578 31.43115 1586 ft 177 kts 41°
2026-05-08 16:10 30.13446 31.44137 2402 ft 181 kts 46°
2026-05-08 16:11 30.14027 31.45524 2800 ft 213 kts 77°
2026-05-08 16:11 30.13828 31.47357 3188 ft 250 kts 110°
2026-05-08 16:11 30.12743 31.49057 3676 ft 282 kts 137°
2026-05-08 16:11 30.10988 31.50056 4723 ft 282 kts 162°
2026-05-08 16:12 30.09152 31.50903 5495 ft 289 kts 143°
2026-05-08 16:12 30.07594 31.52368 6316 ft 292 kts 138°
2026-05-08 16:12 30.05965 31.53809 7150 ft 295 kts 140°
2026-05-08 16:12 30.04299 31.55212 7938 ft 298 kts 142°
2026-05-08 16:13 30.02603 31.56601 8801 ft 301 kts 142°
2026-05-08 16:13 30.00860 31.58009 9476 ft 310 kts 143°
2026-05-08 16:13 29.99093 31.59421 10373 ft 311 kts 143°
2026-05-08 16:13 29.97264 31.60874 10832 ft 328 kts 144°
2026-05-08 16:14 29.95334 31.62399 11307 ft 343 kts 144°
2026-05-08 16:14 29.93352 31.63968 11961 ft 350 kts 144°
2026-05-08 16:14 29.91322 31.65571 12674 ft 357 kts 144°
2026-05-08 16:14 29.89268 31.67192 13527 ft 358 kts 144°
2026-05-08 16:15 29.87203 31.68822 14294 ft 363 kts 144°
2026-05-08 16:15 29.85099 31.70482 14929 ft 371 kts 144°
2026-05-08 16:15 29.82955 31.72171 15653 ft 375 kts 144°
2026-05-08 16:15 29.80791 31.73875 16398 ft 379 kts 145°
2026-05-08 16:16 29.78607 31.75597 17150 ft 382 kts 145°
2026-05-08 16:16 29.76406 31.77329 17868 ft 385 kts 145°
2026-05-08 16:16 29.74189 31.79073 18498 ft 390 kts 146°
2026-05-08 16:16 29.71936 31.80844 19095 ft 393 kts 146°
2026-05-08 16:17 29.69701 31.82600 19692 ft 396 kts 146°
2026-05-08 16:17 29.68158 31.83812 20051 ft 400 kts 146°
2026-05-08 16:17 29.65064 31.86241 20789 ft 405 kts 146°
2026-05-08 16:17 29.62732 31.88071 21361 ft 408 kts 146°
2026-05-08 16:18 29.60407 31.89895 21906 ft 412 kts 146°
2026-05-08 16:18 29.58027 31.91759 22448 ft 416 kts 146°
2026-05-08 16:18 29.55598 31.93662 22992 ft 420 kts 147°
2026-05-08 16:18 29.53180 31.95555 23526 ft 424 kts 147°
2026-05-08 16:19 29.50768 31.97441 23958 ft 427 kts 147°
2026-05-08 16:19 29.48303 31.99368 24406 ft 430 kts 147°
2026-05-08 16:19 29.45824 32.01306 24844 ft 433 kts 146°
2026-05-08 16:19 29.43321 32.03260 25299 ft 436 kts 146°
2026-05-08 16:20 29.40807 32.05222 25730 ft 439 kts 146°
2026-05-08 16:20 29.38240 32.07224 26166 ft 442 kts 146°
2026-05-08 16:20 29.35720 32.09188 26565 ft 446 kts 146°
2026-05-08 16:20 29.33146 32.11193 26950 ft 450 kts 146°
2026-05-08 16:21 29.30547 32.13216 27377 ft 452 kts 146°
2026-05-08 16:21 29.27937 32.15247 27789 ft 455 kts 146°
2026-05-08 16:21 29.25311 32.17289 28211 ft 458 kts 146°
2026-05-08 16:21 29.22673 32.19336 28704 ft 458 kts 146°
2026-05-08 16:22 29.20016 32.21401 28963 ft 465 kts 146°
2026-05-08 16:22 29.17333 32.23484 29373 ft 467 kts 146°
2026-05-08 16:22 29.14640 32.25572 29748 ft 470 kts 146°
2026-05-08 16:22 29.11930 32.27672 30092 ft 473 kts 146°
2026-05-08 16:23 29.09220 32.29770 30412 ft 476 kts 146°
2026-05-08 16:23 29.06469 32.31900 30726 ft 479 kts 146°
2026-05-08 16:23 29.03704 32.34039 31037 ft 481 kts 146°
2026-05-08 16:23 29.00923 32.36189 31344 ft 484 kts 146°
2026-05-08 16:24 28.98122 32.38352 31612 ft 488 kts 146°
2026-05-08 16:24 28.95303 32.40528 31918 ft 491 kts 146°
2026-05-08 16:24 28.92467 32.42716 32231 ft 493 kts 146°
2026-05-08 16:24 28.89613 32.44916 32531 ft 496 kts 146°
2026-05-08 16:25 28.86747 32.47124 32817 ft 499 kts 146°
2026-05-08 16:25 28.83859 32.49348 33136 ft 501 kts 146°
2026-05-08 16:25 28.80966 32.51574 33426 ft 504 kts 146°
2026-05-08 16:25 28.78054 32.53812 33743 ft 505 kts 146°
2026-05-08 16:26 28.75137 32.56053 34123 ft 505 kts 146°
2026-05-08 16:26 28.72225 32.58289 34474 ft 505 kts 146°
2026-05-08 16:26 28.69310 32.60526 34823 ft 504 kts 146°
2026-05-08 16:26 28.66399 32.62757 35009 ft 505 kts 146°
2026-05-08 16:27 28.60588 32.67209 34998 ft 502 kts 146°
2026-05-08 16:27 28.54788 32.71645 34980 ft 502 kts 147°
2026-05-08 16:28 28.49006 32.76062 34961 ft 501 kts 147°
2026-05-08 16:28 28.43220 32.80476 34964 ft 501 kts 147°
2026-05-08 16:29 28.37439 32.84880 34960 ft 501 kts 147°
2026-05-08 16:29 28.31686 32.89257 34967 ft 501 kts 147°
2026-05-08 16:30 28.25889 32.93661 34967 ft 502 kts 147°
2026-05-08 16:30 28.20087 32.98064 34948 ft 501 kts 147°
2026-05-08 16:31 28.14293 33.02454 34959 ft 501 kts 147°
2026-05-08 16:31 28.08502 33.06837 34943 ft 501 kts 147°
2026-05-08 16:32 28.03691 33.10474 34944 ft 500 kts 147°
2026-05-08 16:32 27.98032 33.15067 34940 ft 501 kts 144°
2026-05-08 16:33 27.92363 33.19669 34933 ft 503 kts 144°
2026-05-08 16:33 27.86677 33.24272 34926 ft 501 kts 144°
2026-05-08 16:34 27.81008 33.28856 34926 ft 501 kts 144°
2026-05-08 16:34 27.75337 33.33436 34910 ft 501 kts 145°
2026-05-08 16:35 27.69662 33.38012 34915 ft 501 kts 145°
2026-05-08 16:35 27.63990 33.42581 34908 ft 501 kts 145°
2026-05-08 16:36 27.58311 33.47149 34918 ft 501 kts 145°
2026-05-08 16:36 27.52641 33.51704 34913 ft 500 kts 145°
2026-05-08 16:37 27.46979 33.56256 34922 ft 500 kts 145°
2026-05-08 16:37 27.41313 33.60804 34923 ft 500 kts 145°
2026-05-08 16:38 27.35645 33.65349 34922 ft 500 kts 145°
2026-05-08 16:38 27.29980 33.69885 34910 ft 500 kts 145°
2026-05-08 16:39 27.24320 33.74412 34917 ft 500 kts 145°
2026-05-08 16:39 27.18914 33.79220 34899 ft 498 kts 130°
2026-05-08 16:40 27.16955 33.82455 34911 ft 494 kts 113°
2026-05-08 16:40 27.15623 33.85955 34914 ft 495 kts 110°
2026-05-08 16:40 27.13007 33.93101 34912 ft 495 kts 109°
2026-05-08 16:41 27.10449 34.00259 34909 ft 495 kts 109°
2026-05-08 16:42 27.06607 34.11025 34903 ft 496 kts 109°
2026-05-08 16:42 27.04039 34.18203 34894 ft 495 kts 109°
2026-05-08 16:43 27.01474 34.25364 34894 ft 496 kts 109°
2026-05-08 16:43 26.98896 34.32546 34887 ft 497 kts 109°
2026-05-08 16:44 26.96311 34.39733 34886 ft 497 kts 109°
2026-05-08 16:44 26.93722 34.46918 34884 ft 497 kts 109°
2026-05-08 16:45 26.91132 34.54094 34882 ft 498 kts 109°
2026-05-08 16:45 26.88530 34.61290 34881 ft 498 kts 109°
2026-05-08 16:46 26.85925 34.68478 34878 ft 498 kts 109°
2026-05-08 16:46 26.83319 34.75658 34882 ft 498 kts 109°
2026-05-08 16:47 26.80705 34.82846 34877 ft 498 kts 109°
2026-05-08 16:47 26.78092 34.90018 34879 ft 498 kts 109°
2026-05-08 16:48 26.75472 34.97195 34875 ft 498 kts 109°
2026-05-08 16:48 26.72852 35.04360 34876 ft 498 kts 109°
2026-05-08 16:49 26.70227 35.11526 34874 ft 498 kts 109°
2026-05-08 16:49 26.67598 35.18689 34872 ft 498 kts 109°
2026-05-08 16:50 26.64970 35.25837 34878 ft 498 kts 109°
2026-05-08 16:50 26.62342 35.32971 34873 ft 498 kts 109°
2026-05-08 16:51 26.59716 35.40088 34868 ft 498 kts 109°
2026-05-08 16:51 26.57068 35.47247 34870 ft 499 kts 110°
2026-05-08 16:52 26.54352 35.54362 34866 ft 499 kts 110°
2026-05-08 16:52 26.51628 35.61500 34874 ft 500 kts 110°
2026-05-08 16:53 26.47539 35.72197 34865 ft 500 kts 110°
2026-05-08 16:53 26.44808 35.79326 34855 ft 500 kts 110°
2026-05-08 16:54 26.42075 35.86448 34864 ft 499 kts 110°
2026-05-08 16:54 26.39344 35.93549 34865 ft 499 kts 110°
2026-05-08 16:55 26.36608 36.00653 34867 ft 499 kts 110°
2026-05-08 16:55 26.33871 36.07747 34870 ft 499 kts 110°
2026-05-08 16:56 26.31126 36.14850 34868 ft 499 kts 110°
2026-05-08 16:56 26.28377 36.21950 34864 ft 499 kts 110°
2026-05-08 16:57 26.25644 36.29000 34860 ft 499 kts 110°
2026-05-08 16:57 26.22887 36.36093 34858 ft 499 kts 110°
2026-05-08 16:58 26.20125 36.43191 34856 ft 499 kts 110°
2026-05-08 16:58 26.17220 36.50209 34862 ft 501 kts 115°
2026-05-08 16:59 26.13888 36.57034 34865 ft 502 kts 116°
2026-05-08 16:59 26.10544 36.63825 34867 ft 502 kts 116°
2026-05-08 17:00 26.07182 36.70641 34872 ft 502 kts 116°
2026-05-08 17:00 26.03821 36.77443 34872 ft 502 kts 116°
2026-05-08 17:01 26.00456 36.84244 34869 ft 502 kts 116°
2026-05-08 17:01 25.97085 36.91046 34875 ft 502 kts 116°
2026-05-08 17:02 25.93713 36.97840 34873 ft 502 kts 116°
2026-05-08 17:02 25.90338 37.04628 34862 ft 502 kts 116°
2026-05-08 17:03 25.86957 37.11419 34874 ft 502 kts 116°
2026-05-08 17:03 25.83575 37.18203 34874 ft 502 kts 116°
2026-05-08 17:04 25.80192 37.24988 34878 ft 502 kts 116°
2026-05-08 17:04 25.76828 37.31756 34880 ft 502 kts 117°
2026-05-08 17:05 25.73449 37.38542 34859 ft 502 kts 117°
2026-05-08 17:05 25.70067 37.45322 34904 ft 502 kts 117°
2026-05-08 17:06 25.66692 37.52079 34903 ft 503 kts 117°
2026-05-08 17:06 25.63300 37.58860 34906 ft 503 kts 117°
2026-05-08 17:07 25.59904 37.65638 34895 ft 503 kts 117°
2026-05-08 17:07 25.56509 37.72407 34890 ft 503 kts 117°
2026-05-08 17:08 25.53114 37.79162 34888 ft 502 kts 118°
2026-05-08 17:08 25.49717 37.85914 34883 ft 502 kts 118°
2026-05-08 17:09 25.46315 37.92664 34870 ft 502 kts 118°
2026-05-08 17:09 25.42915 37.99401 34859 ft 502 kts 118°
2026-05-08 17:10 25.39529 38.06102 34864 ft 502 kts 118°
2026-05-08 17:10 25.36119 38.12838 34849 ft 502 kts 118°
2026-05-08 17:11 25.32715 38.19552 34865 ft 502 kts 118°
2026-05-08 17:11 25.29299 38.26282 34866 ft 503 kts 119°
2026-05-08 17:12 25.25879 38.33010 34855 ft 502 kts 119°
2026-05-08 17:12 25.22455 38.39734 34858 ft 502 kts 119°
2026-05-08 17:13 25.19025 38.46465 34865 ft 502 kts 119°
2026-05-08 17:13 25.15595 38.53175 34872 ft 502 kts 119°
2026-05-08 17:14 25.12168 38.59867 34343 ft 499 kts 116°
2026-05-08 17:14 25.10443 38.63223 33316 ft 506 kts 118°
2026-05-08 17:14 25.08715 38.66601 32669 ft 504 kts 118°
2026-05-08 17:15 25.07000 38.69943 32273 ft 496 kts 118°
2026-05-08 17:15 25.05317 38.73220 31866 ft 489 kts 118°
2026-05-08 17:15 25.03650 38.76466 31345 ft 485 kts 117°
2026-05-08 17:15 25.01988 38.79700 30683 ft 486 kts 117°
2026-05-08 17:16 25.00318 38.82937 30097 ft 484 kts 116°
2026-05-08 17:16 24.98660 38.86155 29554 ft 481 kts 116°
2026-05-08 17:16 24.97018 38.89340 29038 ft 476 kts 116°
2026-05-08 17:16 24.95690 38.92633 28413 ft 467 kts 102°
2026-05-08 17:17 24.94842 38.95998 27906 ft 462 kts 103°
2026-05-08 17:17 24.93913 38.99374 27451 ft 457 kts 103°
2026-05-08 17:17 24.93004 39.02714 26946 ft 454 kts 103°
2026-05-08 17:17 24.92101 39.06046 26437 ft 452 kts 103°
2026-05-08 17:18 24.91208 39.09347 25957 ft 449 kts 103°
2026-05-08 17:18 24.90318 39.12633 25477 ft 447 kts 104°
2026-05-08 17:18 24.89431 39.15901 24992 ft 444 kts 104°
2026-05-08 17:18 24.88547 39.19159 24514 ft 442 kts 105°
2026-05-08 17:19 24.87670 39.22386 24051 ft 440 kts 105°
2026-05-08 17:19 24.86797 39.25598 23711 ft 435 kts 105°
2026-05-08 17:19 24.85937 39.28757 23537 ft 425 kts 105°
2026-05-08 17:19 24.85098 39.31840 23342 ft 416 kts 105°
2026-05-08 17:20 24.84274 39.34861 23065 ft 409 kts 105°
2026-05-08 17:20 24.83456 39.37854 22578 ft 408 kts 106°
2026-05-08 17:20 24.82640 39.40841 22158 ft 406 kts 106°
2026-05-08 17:20 24.81829 39.43810 21740 ft 404 kts 107°
2026-05-08 17:21 24.81022 39.46759 21316 ft 402 kts 107°
2026-05-08 17:21 24.80222 39.49679 20905 ft 399 kts 107°
2026-05-08 17:21 24.79420 39.52602 20482 ft 398 kts 107°
2026-05-08 17:21 24.78625 39.55502 20081 ft 395 kts 107°
2026-05-08 17:22 24.78099 39.57421 19812 ft 394 kts 108°
2026-05-08 17:22 24.77044 39.61258 19274 ft 391 kts 108°
2026-05-08 17:22 24.76522 39.63158 18995 ft 390 kts 108°
2026-05-08 17:22 24.75739 39.66006 18593 ft 388 kts 109°
2026-05-08 17:23 24.74961 39.68832 18213 ft 385 kts 109°
2026-05-08 17:23 24.74119 39.71885 17709 ft 383 kts 109°
2026-05-08 17:23 24.73335 39.74661 17281 ft 380 kts 112°
2026-05-08 17:23 24.72032 39.77088 16833 ft 371 kts 136°
2026-05-08 17:24 24.69996 39.78706 16499 ft 357 kts 160°
2026-05-08 17:24 24.67641 39.79380 16161 ft 347 kts 173°
2026-05-08 17:24 24.65278 39.79865 15792 ft 344 kts 172°
2026-05-08 17:24 24.62936 39.80364 15429 ft 341 kts 172°
2026-05-08 17:25 24.60637 39.80853 15282 ft 331 kts 171°
2026-05-08 17:25 24.58399 39.81328 15107 ft 323 kts 171°
2026-05-08 17:25 24.56243 39.81786 14872 ft 310 kts 171°
2026-05-08 17:25 24.54146 39.82231 14507 ft 302 kts 171°
2026-05-08 17:26 24.52110 39.82663 14147 ft 294 kts 171°
2026-05-08 17:26 24.50133 39.83081 13822 ft 285 kts 171°
2026-05-08 17:26 24.48223 39.83486 13525 ft 275 kts 171°
2026-05-08 17:26 24.46369 39.83878 13187 ft 268 kts 171°
2026-05-08 17:27 24.44564 39.84261 12876 ft 260 kts 171°
2026-05-08 17:27 24.42812 39.84632 12571 ft 253 kts 171°
2026-05-08 17:27 24.41110 39.84992 12288 ft 246 kts 171°
2026-05-08 17:27 24.39454 39.85343 11993 ft 239 kts 171°
2026-05-08 17:28 24.37843 39.85684 11747 ft 233 kts 171°
2026-05-08 17:28 24.36263 39.86018 11491 ft 230 kts 171°
2026-05-08 17:28 24.34699 39.86349 11213 ft 228 kts 171°
2026-05-08 17:28 24.33167 39.86673 10963 ft 226 kts 171°
2026-05-08 17:29 24.31613 39.87001 10695 ft 224 kts 171°
2026-05-08 17:29 24.30086 39.87311 10319 ft 228 kts 171°
2026-05-08 17:29 24.28523 39.87643 10039 ft 228 kts 171°
2026-05-08 17:29 24.26965 39.87975 9842 ft 222 kts 171°
2026-05-08 17:30 24.25469 39.88292 9648 ft 216 kts 171°
2026-05-08 17:30 24.24034 39.88595 9446 ft 210 kts 171°
2026-05-08 17:30 24.22611 39.88793 9194 ft 204 kts 187°
2026-05-08 17:30 24.21309 39.88266 8943 ft 201 kts 217°
2026-05-08 17:31 24.20432 39.87072 8715 ft 205 kts 244°
2026-05-08 17:31 24.20049 39.85550 8541 ft 209 kts 254°
2026-05-08 17:31 24.19738 39.83987 8344 ft 211 kts 255°
2026-05-08 17:31 24.19436 39.82410 8112 ft 212 kts 255°
2026-05-08 17:32 24.19245 39.80808 7832 ft 215 kts 272°
2026-05-08 17:32 24.19745 39.79207 7261 ft 236 kts 303°
2026-05-08 17:32 24.21064 39.78079 6816 ft 250 kts 338°
2026-05-08 17:32 24.22772 39.77687 6606 ft 249 kts 348°
2026-05-08 17:33 24.24455 39.77349 6452 ft 244 kts 347°
2026-05-08 17:33 24.26110 39.77007 6242 ft 240 kts 346°
2026-05-08 17:33 24.27744 39.76665 6039 ft 237 kts 346°
2026-05-08 17:33 24.29332 39.76333 5936 ft 227 kts 346°
2026-05-08 17:34 24.30841 39.76027 5942 ft 214 kts 345°
2026-05-08 17:34 24.32297 39.75723 5970 ft 212 kts 346°
2026-05-08 17:34 24.33729 39.75421 5791 ft 208 kts 345°
2026-05-08 17:34 24.35136 39.75123 5542 ft 204 kts 346°
2026-05-08 17:35 24.36518 39.74829 5306 ft 199 kts 345°
2026-05-08 17:35 24.37848 39.74547 5071 ft 191 kts 345°
2026-05-08 17:35 24.39132 39.74274 4835 ft 185 kts 345°
2026-05-08 17:35 24.40392 39.74007 4588 ft 184 kts 345°
2026-05-08 17:36 24.41637 39.73742 4393 ft 182 kts 345°
2026-05-08 17:36 24.42885 39.73476 4175 ft 183 kts 345°
2026-05-08 17:36 24.44103 39.73217 3957 ft 172 kts 345°
2026-05-08 17:36 24.45236 39.72976 3747 ft 162 kts 345°
2026-05-08 17:37 24.46322 39.72745 3536 ft 158 kts 345°
2026-05-08 17:37 24.47384 39.72518 3356 ft 157 kts 344°
2026-05-08 17:37 24.48464 39.72275 3151 ft 155 kts 343°
2026-05-08 17:37 24.49547 39.72037 2958 ft 159 kts 345°
2026-05-08 17:38 24.50617 39.71820 2750 ft 158 kts 345°
2026-05-08 17:38 24.51708 39.71580 2534 ft 160 kts 348°
2026-05-08 17:38 24.52790 39.71371 2303 ft 159 kts 345°
2026-05-08 17:38 24.53868 39.71132 2120 ft 155 kts 347°
2026-05-08 17:39 24.54850 39.70921 2089 ft 130 kts 349°
2026-05-08 17:39 24.55603 39.70764 2097 ft 89 kts 349°
2026-05-08 17:39 24.55981 39.70691 2108 ft 22 kts 355°
2026-05-08 17:39 24.56027 39.70687 2109 ft 7 kts 358°
2026-05-08 17:40 24.56119 39.70695 2111 ft 17 kts
2026-05-08 17:40 24.56234 39.70729 2114 ft 15 kts 20°
2026-05-08 17:40 24.56259 39.70742 2115 ft 0 kts 33°
2026-05-08 17:41 24.56259 39.70743 2115 ft 0 kts 33°
2026-05-08 17:41 24.56272 39.70756 2117 ft 8 kts 51°
2026-05-08 17:41 24.56252 39.70831 2116 ft 16 kts 168°
2026-05-08 17:41 24.56126 39.70848 2112 ft 20 kts 169°
2026-05-08 17:42 24.56012 39.70884 2111 ft 14 kts 135°
2026-05-08 17:42 24.56005 39.70952 2110 ft 9 kts 79°
2026-05-08 17:42 24.56016 39.71012 2111 ft 0 kts 78°
2026-05-08 17:42 24.56016 39.71015 2112 ft 1 kts 78°
2026-05-08 17:43 24.56017 39.71042 2112 ft 6 kts 98°
2026-05-08 17:43 24.55972 39.71080 2111 ft 12 kts 175°
2026-05-08 17:43 24.55872 39.71097 2108 ft 18 kts 168°
2026-05-08 17:43 24.55733 39.71127 2106 ft 22 kts 169°
2026-05-08 17:44 24.55570 39.71162 2102 ft 24 kts 169°
2026-05-08 17:44 24.55469 39.71188 2100 ft 1 kts 148°
2026-05-08 17:44 24.55456 39.71204 2100 ft 4 kts 111°
2026-05-08 17:44 24.55461 39.71233 2100 ft 4 kts 76°
2026-05-08 17:45 24.55468 39.71270 2100 ft 5 kts 79°
2026-05-08 17:45 24.55472 39.71292 2101 ft 1 kts 79°